When you browse on this site, cookies collect data to enhance your experience and personalize the content and advertising you see.
Visit our Privacy Policy to learn more. By continuing to use the site, you agree to this use of cookies and data.
  • In Sweden
  • List of Countries
  • For 7 days
  • Water Temperature
  • Weather Map
  • Weather Widgets
  • user-avatar
    Login

    Hourly Weather Delhi

    Today, 28 May, Thursday

    Time Temperature Precipitation Wind Pressure Humidity
    00:00 +40°C° 0 mm 2 mps 729 mmHg 11%
    01:00 +39°C° 0 mm 3 mps 729 mmHg 15%
    02:00 +38°C° 0 mm 4 mps 728 mmHg 18%
    03:00 +37°C° 0 mm 4 mps 729 mmHg 25%
    04:00 +36°C° 0 mm 4 mps 729 mmHg 32%
    05:00 +34°C° 0 mm 4 mps 730 mmHg 56%
    06:00 +35°C° 0 mm 4 mps 730 mmHg 53%
    07:00 +35°C° 0 mm 4 mps 730 mmHg 49%
    08:00 +36°C° 0 mm 4 mps 731 mmHg 46%
    09:00 +38°C° 0 mm 4 mps 731 mmHg 40%
    10:00 +40°C° 0 mm 3 mps 730 mmHg 34%
    11:00 +42°C° 0 mm 4 mps 731 mmHg 32%
    12:00 +43°C° 0 mm 4 mps 730 mmHg 26%
    13:00 +45°C° 0 mm 4 mps 729 mmHg 21%
    14:00 +47°C° 0 mm 3 mps 728 mmHg 15%
    15:00 +45°C° 0.1 mm 4 mps 728 mmHg 16%
    16:00 +43°C° 0.1 mm 5 mps 727 mmHg 16%
    17:00 +42°C° 0.1 mm 5 mps 727 mmHg 17%
    18:00 +41°C° 0.1 mm 5 mps 728 mmHg 17%
    19:00 +41°C° 0.1 mm 5 mps 729 mmHg 17%
    20:00 +40°C° 0.1 mm 5 mps 730 mmHg 17%
    21:00 +39°C° 0 mm 5 mps 730 mmHg 21%
    22:00 +36°C° 0 mm 6 mps 730 mmHg 26%
    23:00 +34°C° 0 mm 6 mps 730 mmHg 31%

    Tomorrow, 29 May, Friday

    Time Temperature Precipitation Wind Pressure Humidity
    00:00 +34°C° 0 mm 6 mps 730 mmHg 31%
    01:00 +34°C° 0 mm 6 mps 730 mmHg 32%
    02:00 +34°C° 0 mm 5 mps 729 mmHg 32%
    03:00 +34°C° 0 mm 5 mps 730 mmHg 33%
    04:00 +33°C° 0 mm 5 mps 730 mmHg 33%
    05:00 +33°C° 0 mm 5 mps 730 mmHg 34%
    06:00 +34°C° 0 mm 5 mps 731 mmHg 36%
    07:00 +34°C° 0 mm 5 mps 732 mmHg 38%
    08:00 +35°C° 0 mm 5 mps 733 mmHg 40%
    09:00 +37°C° 0 mm 5 mps 732 mmHg 36%
    10:00 +40°C° 0 mm 4 mps 732 mmHg 32%
    11:00 +42°C° 0 mm 4 mps 732 mmHg 28%
    12:00 +43°C° 0 mm 3 mps 731 mmHg 24%
    13:00 +44°C° 0 mm 3 mps 730 mmHg 20%
    14:00 +46°C° 0 mm 2 mps 730 mmHg 16%
    15:00 +45°C° 0 mm 3 mps 729 mmHg 15%
    16:00 +44°C° 0 mm 3 mps 729 mmHg 15%
    17:00 +44°C° 0 mm 4 mps 728 mmHg 14%
    18:00 +42°C° 0 mm 4 mps 729 mmHg 17%
    19:00 +40°C° 0 mm 3 mps 730 mmHg 20%
    20:00 +39°C° 0 mm 2 mps 730 mmHg 23%
    21:00 +37°C° 0 mm 3 mps 731 mmHg 29%
    22:00 +35°C° 0 mm 3 mps 731 mmHg 35%
    23:00 +33°C° 0 mm 3 mps 731 mmHg 41%

    Day after tomorrow, 30 May, Saturday

    Time Temperature Precipitation Wind Pressure Humidity
    00:00 +33°C° 0 mm 3 mps 731 mmHg 40%
    01:00 +33°C° 0 mm 3 mps 732 mmHg 38%
    02:00 +33°C° 0 mm 4 mps 732 mmHg 37%
    03:00 +33°C° 0 mm 3 mps 732 mmHg 38%
    04:00 +33°C° 0 mm 3 mps 732 mmHg 39%
    05:00 +32°C° 0 mm 2 mps 732 mmHg 40%
    06:00 +34°C° 0 mm 2 mps 733 mmHg 38%
    07:00 +35°C° 0 mm 2 mps 734 mmHg 35%
    08:00 +35°C° 0 mm 3 mps 734 mmHg 33%
    09:00 +37°C° 0 mm 3 mps 734 mmHg 31%
    10:00 +38°C° 0 mm 4 mps 734 mmHg 28%
    11:00 +40°C° 0 mm 4 mps 734 mmHg 26%
    12:00 +42°C° 0 mm 4 mps 734 mmHg 26%
    13:00 +43°C° 0 mm 3 mps 733 mmHg 23%
    14:00 +44°C° 0 mm 3 mps 733 mmHg 20%
    15:00 +42°C° 0.1 mm 3 mps 732 mmHg 24%
    16:00 +41°C° 0.1 mm 4 mps 731 mmHg 27%
    17:00 +38°C° 0.1 mm 4 mps 731 mmHg 30%
    18:00 +37°C° 0 mm 4 mps 731 mmHg 31%
    19:00 +36°C° 0 mm 3 mps 731 mmHg 31%
    20:00 +35°C° 0 mm 3 mps 731 mmHg 32%
    21:00 +35°C° 0 mm 2 mps 732 mmHg 32%
    22:00 +35°C° 0 mm 2 mps 732 mmHg 33%
    23:00 +35°C° 0 mm 2 mps 732 mmHg 33%

    31 May, Sunday

    Time Temperature Precipitation Wind Pressure Humidity
    00:00 +34°C° 0 mm 2 mps 732 mmHg 34%
    01:00 +34°C° 0 mm 2 mps 733 mmHg 34%
    02:00 +34°C° 0 mm 2 mps 733 mmHg 35%
    03:00 +34°C° 0.4 mm 2 mps 733 mmHg 38%
    04:00 +32°C° 0.4 mm 2 mps 733 mmHg 41%
    05:00 +32°C° 0.4 mm 2 mps 734 mmHg 44%
    06:00 +34°C° 0 mm 2 mps 734 mmHg 40%
    07:00 +35°C° 0 mm 3 mps 734 mmHg 36%
    08:00 +36°C° 0 mm 4 mps 734 mmHg 32%
    09:00 +38°C° 0 mm 4 mps 734 mmHg 30%
    10:00 +40°C° 0 mm 4 mps 734 mmHg 27%
    11:00 +40°C° 0 mm 3 mps 734 mmHg 25%
    12:00 +42°C° 0 mm 4 mps 734 mmHg 24%
    13:00 +42°C° 0 mm 4 mps 733 mmHg 23%
    14:00 +43°C° 0 mm 5 mps 732 mmHg 21%
    15:00 +42°C° 0 mm 5 mps 732 mmHg 24%
    16:00 +41°C° 0 mm 5 mps 732 mmHg 26%
    17:00 +40°C° 0 mm 5 mps 732 mmHg 28%
    18:00 +37°C° 0 mm 5 mps 732 mmHg 34%
    19:00 +35°C° 0 mm 5 mps 732 mmHg 40%
    20:00 +33°C° 0 mm 5 mps 733 mmHg 46%
    21:00 +33°C° 0.4 mm 4 mps 733 mmHg 45%
    22:00 +33°C° 0.4 mm 3 mps 733 mmHg 45%
    23:00 +32°C° 0.4 mm 2 mps 733 mmHg 45%

    1 June, Monday

    Time Temperature Precipitation Wind Pressure Humidity
    00:00 +32°C° 0 mm 1 mps 733 mmHg 45%
    01:00 +31°C° 0 mm 1 mps 733 mmHg 45%
    02:00 +31°C° 0 mm 1 mps 733 mmHg 46%
    03:00 +31°C° 0 mm 1 mps 733 mmHg 46%
    04:00 +31°C° 0 mm 1 mps 733 mmHg 47%
    05:00 +30°C° 0 mm 1 mps 733 mmHg 48%
    06:00 +32°C° 0 mm 1 mps 734 mmHg 44%
    07:00 +33°C° 0 mm 1 mps 734 mmHg 41%
    08:00 +34°C° 0 mm 1 mps 735 mmHg 37%
    09:00 +36°C° 0 mm 1 mps 735 mmHg 33%
    10:00 +39°C° 0 mm 1 mps 735 mmHg 29%
    11:00 +41°C° 0 mm 1 mps 735 mmHg 25%
    12:00 +41°C° 0 mm 2 mps 734 mmHg 23%
    13:00 +43°C° 0 mm 3 mps 733 mmHg 21%
    14:00 +44°C° 0 mm 3 mps 733 mmHg 18%
    15:00 +44°C° 0 mm 4 mps 732 mmHg 18%
    16:00 +44°C° 0 mm 4 mps 732 mmHg 17%
    17:00 +45°C° 0 mm 5 mps 731 mmHg 17%
    18:00 +42°C° 0 mm 5 mps 732 mmHg 20%
    19:00 +41°C° 0 mm 4 mps 732 mmHg 24%
    20:00 +38°C° 0 mm 4 mps 732 mmHg 27%
    21:00 +38°C° 0 mm 3 mps 732 mmHg 27%
    22:00 +38°C° 0 mm 3 mps 733 mmHg 27%
    23:00 +38°C° 0 mm 2 mps 733 mmHg 27%

    2 June, Tuesday

    Time Temperature Precipitation Wind Pressure Humidity
    00:00 +37°C° 0 mm 2 mps 733 mmHg 27%
    01:00 +37°C° 0 mm 2 mps 732 mmHg 27%
    02:00 +36°C° 0 mm 1 mps 732 mmHg 27%
    03:00 +35°C° 0 mm 1 mps 732 mmHg 27%
    04:00 +35°C° 0 mm 1 mps 732 mmHg 28%
    05:00 +35°C° 0 mm 1 mps 732 mmHg 28%
    06:00 +37°C° 0 mm 2 mps 733 mmHg 27%
    07:00 +38°C° 0 mm 3 mps 733 mmHg 25%
    08:00 +40°C° 0 mm 4 mps 734 mmHg 24%
    09:00 +41°C° 0 mm 4 mps 734 mmHg 23%
    10:00 +42°C° 0 mm 4 mps 734 mmHg 21%
    11:00 +43°C° 0 mm 4 mps 734 mmHg 19%
    12:00 +44°C° 0 mm 4 mps 733 mmHg 18%
    13:00 +45°C° 0 mm 4 mps 732 mmHg 17%
    14:00 +46°C° 0 mm 5 mps 732 mmHg 15%
    15:00 +46°C° 0 mm 5 mps 731 mmHg 16%
    16:00 +45°C° 0 mm 5 mps 730 mmHg 18%
    17:00 +45°C° 0 mm 5 mps 730 mmHg 19%
    18:00 +43°C° 0 mm 5 mps 730 mmHg 20%
    19:00 +42°C° 0 mm 5 mps 730 mmHg 22%
    20:00 +41°C° 0 mm 5 mps 731 mmHg 24%
    21:00 +40°C° 0 mm 5 mps 731 mmHg 26%
    22:00 +37°C° 0 mm 4 mps 731 mmHg 29%
    23:00 +36°C° 0 mm 4 mps 732 mmHg 31%
    Show more